Tracking 31027 objects as of 19-Jul-2025
HD Live streaming from Space Station
objects crossing your sky now

DMSP 5D-2 F13 DEB

Track DMSP 5D-2 F13 DEB now!
10-day predictions


NORAD ID: 42285
Int'l Code: 1995-015HB
Perigee: 796.9 km
Apogee: 839.2 km
Inclination: 98.9 °
Period: 101.1 minutes
Semi major axis: 7189 km
RCS: Unknown
Launch date: March 24, 1995
Source: United States (US)
Launch site: AIR FORCE WESTERN TEST RANGE (AFWTR)

Note: This is SATELLITE DEBRIS
Your satellite tracking list
FENGYUN 1C DEB
Track 1 satellite(s)




NASA's NSSDC Master Catalog

Two Line Element Set (TLE):
1 42285U 95015HB  25197.29622805  .00002344  00000-0  10306-2 0  9994
2 42285  98.9244 218.7367 0029398 279.7567  80.0292 14.24282261519993
Source of the keplerian elements: AFSPC